User: anonymous   Login
Location: Gollag?dem
(16.8053°N, 80.8024°E)
Time: 00:19:27
(UTC+00:00)
Language:

Sakura Rocket - Orbit

View from above orbital plane
View from above orbital plane
View from above satellite
View from above satellite

Ground track
Ground track

The orbit data is extracted from the following two-line orbital elements,

1 10517U 77118B   20292.92887791 +.00000311 +00000-0 +40440-4 0  9995
2 10517 028.6572 128.9330 0845812 053.8266 313.7584 13.39878878073306
Epoch (UTC): 18 October 2020 22:17:35
Eccentricity: 0.0845812
inclination: 28.6572°
perigee height: 476 km
apogee height: 1743 km
right ascension of ascending node: 128.9330°
argument of perigee: 53.8266°
revolutions per day: 13.39878878
mean anomaly at epoch: 313.7584°
orbit number at epoch: 7330

The dashed part of the orbit path shows where the satellite is in the earth's shadow,  

DLR